[[{"header":{"parameterUnit":"m.s-1","parameterCategory":1,"la1":30.2991,"la2":30.254,"lo1":-89.0895,"lo2":-89.0444,"dy":0.0017,"dx":0.0017,"nx":28,"ny":28,"refTime":"2024-08-30T09:00:00:Z","depth":0,"parameterNumber":2,"parameterNumberName":"U-component_of_WINDS"},"data":[0,0,0,0,0,0,0,0,0,0,0,0,0,0,0,0,0,0,0,0,0,0,0,0,0,0,0,0,0,0,0,0,0,0,0,0,0,0,0,0,0,0,0,0,0,0,0,0,0,0,0,0,0,0,0,0,0,0,-3.4334,-3.4334,0,-3.435,-3.435,-3.435,-3.4289,-3.4287,-3.4285,-3.4283,-3.4297,-3.4299,-3.4301,0,0,0,0,0,0,0,0,0,0,0,0,0,-3.4249,-3.4251,-3.4333,-3.4334,-3.4334,-3.435,-3.435,-3.435,-3.4289,-3.4287,-3.4285,-3.4282,-3.4297,-3.4299,-3.4301,0,0,0,0,0,0,0,0,0,0,0,0,0,-3.4277,-3.4251,-3.4333,-3.4305,-3.4303,-3.435,-3.435,-3.435,-3.4289,-3.4287,-3.4284,-3.4281,-3.4296,-3.4299,-3.4302,-3.4375,0,0,-3.4311,-3.4313,0,0,0,0,0,0,0,0,-3.4276,-3.428,-3.4309,-3.4307,-3.4305,-3.4314,-3.4325,-3.4358,-3.429,-3.4294,-3.4283,-3.428,-3.4305,-3.4307,-3.4316,-3.4376,-3.4377,-3.4311,-3.4313,-3.4315,-3.4316,0,0,0,0,0,0,0,-3.4274,-3.4279,-3.434,-3.431,-3.4307,-3.4292,-3.4293,-3.4331,-3.4315,-3.4294,-3.4289,-3.4292,-3.4303,-3.4313,-3.4316,-3.4377,-3.4311,-3.4314,-3.4316,-3.4317,-3.4498,-3.4501,0,0,0,0,0,0,-3.4276,-3.4278,-3.4339,-3.434,-3.4283,-3.4295,-3.4297,-3.4314,-3.4314,-3.4312,-3.4295,-3.4289,-3.4309,-3.4312,-3.4316,-3.4402,-3.4315,-3.4318,-3.4319,-3.4496,-3.4499,-3.4502,0,0,0,0,0,0,-3.4274,-3.4282,-3.4339,-3.4308,-3.4314,-3.43,-3.432,-3.4316,-3.4326,-3.4315,-3.4311,-3.4308,-3.4307,-3.4312,-3.4361,-3.4401,-3.4319,-3.4322,-3.4492,-3.4497,-3.4501,-3.4574,0,0,0,0,0,0,-3.4272,-3.4282,-3.4309,-3.4309,-3.4316,-3.4384,-3.4322,-3.4318,-3.4331,-3.4325,-3.4326,-3.4324,-3.4305,-3.4357,-3.4364,-3.4404,-3.4324,-3.4488,-3.4494,-3.4499,-3.4567,-3.458,-3.4591,0,0,0,0,0,-3.4269,-3.4328,-3.4311,-3.4319,-3.4351,-3.4386,-3.439,-3.4368,-3.4335,-3.4362,-3.4356,-3.4324,-3.4397,-3.4363,-3.437,-3.4412,-3.4486,-3.4492,-3.4499,-3.4562,-3.4578,-3.459,0,0,0,0,0,0,-3.4332,-3.4328,-3.4308,-3.4369,-3.4379,-3.4376,-3.4409,-3.4385,-3.4403,-3.4396,-3.4368,-3.4369,-3.4423,-3.4423,-3.4385,-3.4483,-3.4435,-3.4444,-3.4481,-3.4495,-3.4507,-3.4504,-3.4327,0,0,0,0,0,-3.4353,-3.4383,-3.4378,-3.4432,-3.4438,-3.4424,-3.4438,-3.4421,-3.4429,-3.4433,-3.4429,-3.4438,-3.4463,-3.448,-3.4502,-3.4569,-3.4567,-3.4601,-3.4613,-3.4622,-3.4629,-3.4664,-3.4678,-3.4524,-3.4524,-3.4524,0,0,-3.4396,-3.4398,-3.4418,-3.4445,-3.445,-3.4481,-3.4427,-3.4462,-3.4485,-3.4438,-3.4484,-3.4483,-3.4491,-3.4549,-3.4575,-3.455,-3.4672,-3.4631,-3.4638,-3.464,-3.4672,-3.4687,-3.47,-3.4529,-3.4528,-3.4527,0,0,-3.4491,-3.4496,-3.4542,-3.4549,-3.4558,-3.4549,-3.456,-3.4562,-3.4559,-3.4606,-3.4572,-3.4599,-3.4642,-3.4649,-3.4658,-3.4759,-3.473,-3.4768,-3.4827,-3.4861,-3.4873,-3.4884,-3.4919,-3.4932,-3.4775,-3.4775,-3.4775,0,-3.4543,-3.4589,-3.4568,-3.4606,-3.4619,-3.458,-3.4626,-3.4634,-3.465,-3.4659,-3.4633,-3.4687,-3.469,-3.4749,-3.4774,-3.4784,-3.4795,-3.4765,-3.4874,-3.4884,-3.4894,-3.4926,-3.494,-3.478,-3.4779,-3.4779,-3.4778,0,-3.4652,-3.4685,-3.4721,-3.4739,-3.4756,-3.4798,-3.4783,-3.4803,-3.4786,-3.4779,-3.4828,-3.4831,-3.4853,-3.4866,-3.4849,-3.4924,-3.4908,-3.4879,-3.4829,-3.4913,-3.4943,-3.4956,-3.4786,-3.4784,-3.4783,-3.4782,0,0,-3.4782,-3.4791,-3.4804,-3.4812,-3.4821,-3.4846,-3.4887,-3.491,-3.4927,-3.4941,-3.4973,-3.5013,-3.4986,-3.4996,-3.498,-3.5011,-3.509,-3.4977,-3.4977,-3.4996,-3.5172,-3.5192,-3.5207,-3.5073,-3.5075,-3.5077,-3.517,0,-3.4873,-3.4943,-3.4927,-3.4996,-3.5026,-3.4992,-3.5027,-3.5037,-3.5033,-3.5058,-3.5053,-3.5081,-3.5044,-3.505,-3.5079,-3.5074,-3.5124,-3.5068,-3.5101,-3.5102,-3.5097,-3.5223,-3.5244,-3.5332,-3.5182,-3.5184,-3.5186,0,-3.4988,-3.5007,-3.508,-3.5086,-3.5098,-3.513,-3.515,-3.5175,-3.5186,-3.5181,-3.5195,-3.5173,-3.5213,-3.5167,-3.5222,-3.5183,-3.5197,-3.5197,-3.52,-3.5199,-3.5147,-3.5224,-3.536,-3.5372,-3.5204,-3.5203,-3.5201,0,-3.5073,-3.5118,-3.5167,-3.5175,-3.5184,-3.5207,-3.5212,-3.522,-3.5236,-3.5254,-3.5264,-3.5287,-3.5298,-3.5316,-3.5302,-3.5269,-3.5359,-3.5311,-3.5354,-3.5354,-3.5371,-3.537,-3.5509,-3.5385,-3.5385,-3.5385,-3.5384,0,-3.5174,-3.5219,-3.5205,-3.5235,-3.5285,-3.5267,-3.5317,-3.5317,-3.5326,-3.5355,-3.5328,-3.5355,-3.5336,-3.5362,-3.5351,-3.5398,-3.5404,-3.54,-3.5396,-3.5401,-3.5401,-3.5406,-3.5399,-3.5388,-3.5387,-3.5387,-3.5386,0,-3.5276,-3.5268,-3.5319,-3.5325,-3.5328,-3.5364,-3.5368,-3.5396,-3.5392,-3.5429,-3.5437,-3.5429,-3.5459,-3.5448,-3.5479,-3.5472,-3.5531,-3.552,-3.5527,-3.5523,-3.5566,-3.5562,-3.5711,-3.573,-3.5597,-3.5598,-3.5599,0,-3.5339,-3.5374,-3.5384,-3.5402,-3.5409,-3.5439,-3.5456,-3.5441,-3.5459,-3.5475,-3.5501,-3.5529,-3.555,-3.5599,-3.5596,-3.562,-3.5608,-3.5659,-3.5611,-3.5615,-3.5606,-3.5603,-3.5606,-3.5667,-3.5669,-3.567,-3.5671,0,-3.5453,-3.5448,-3.5473,-3.5499,-3.5519,-3.5538,-3.5554,-3.557,-3.5556,-3.5578,-3.5609,-3.5626,-3.5659,-3.5686,-3.5709,-3.5713,-3.5689,-3.5687,-3.5698,-3.5702,-3.5704,-3.5701,-3.555,-3.5683,-3.5682,-3.5681,-3.568,-3.568,-3.5536,-3.5565,-3.5577,-3.5606,-3.5618,-3.5634,-3.566,-3.5661,-3.5687,-3.5713,-3.5703,-3.5739,-3.575,-3.5778,-3.5786,-3.5813,-3.5793,-3.5809,-3.5813,-3.5816,-3.5821,-3.5702,-3.5817,-3.5817,-3.5817,-3.5816,-3.5816,0,-3.5646,-3.5653,-3.5681,-3.5705,-3.5729,-3.5708,-3.5725,-3.5746,-3.5778,-3.5791,-3.5813,-3.585,-3.5877,-3.5878,-3.5903,-3.5925,-3.5915,-3.5932,-3.5929,-3.593,-3.5838,-3.5825,-3.594,-3.594,-3.594,-3.594,-3.594,-3.594,-3.5706,-3.5754,-3.5751,-3.5805,-3.5812,-3.5847,-3.5859,-3.5874,-3.5884,-3.5926,-3.595,-3.5951,-3.5959,-3.5986,-3.601,-3.601,-3.6019,-3.604,-3.6035,-3.5949,-3.5936,-3.5924,-3.5912,-3.6043,-3.6043,-3.6124,-3.6125,-3.6125]},{"header":{"parameterUnit":"m.s-1","parameterCategory":1,"la1":30.2991,"la2":30.254,"lo1":-89.0895,"lo2":-89.0444,"dy":0.0017,"dx":0.0017,"nx":28,"ny":28,"refTime":"2024-08-30T09:00:00:Z","depth":0,"parameterNumber":3,"parameterNumberName":"V-component_of_WINDS"},"data":[0,0,0,0,0,0,0,0,0,0,0,0,0,0,0,0,0,0,0,0,0,0,0,0,0,0,0,0,0,0,0,0,0,0,0,0,0,0,0,0,0,0,0,0,0,0,0,0,0,0,0,0,0,0,0,0,0,0,2.2974,2.2975,0,2.3059,2.306,2.3061,2.3093,2.3093,2.3093,2.3093,2.3175,2.3178,2.318,0,0,0,0,0,0,0,0,0,0,0,0,0,2.2836,2.2839,2.2974,2.2975,2.2976,2.3059,2.306,2.3062,2.3093,2.3093,2.3093,2.3092,2.3175,2.3178,2.318,0,0,0,0,0,0,0,0,0,0,0,0,0,2.2906,2.2839,2.2974,2.3002,2.3006,2.3059,2.306,2.3062,2.3093,2.3093,2.3093,2.3092,2.3174,2.3177,2.3181,2.3211,0,0,2.3192,2.3194,0,0,0,0,0,0,0,0,2.2902,2.2911,2.2997,2.3,2.3004,2.3065,2.3042,2.3112,2.3093,2.306,2.3093,2.3092,2.3139,2.3145,2.3162,2.3215,2.3218,2.3192,2.3195,2.3196,2.3197,0,0,0,0,0,0,0,2.2897,2.2908,2.3008,2.2998,2.3003,2.301,2.3019,2.3056,2.31,2.3063,2.3065,2.3075,2.3141,2.3158,2.3164,2.322,2.3192,2.3196,2.3198,2.3199,2.3304,2.3304,0,0,0,0,0,0,2.2888,2.2903,2.3005,2.301,2.2951,2.3013,2.3023,2.3046,2.31,2.3108,2.3075,2.3076,2.3152,2.316,2.3167,2.3208,2.3196,2.32,2.3202,2.3303,2.3304,2.3304,0,0,0,0,0,0,2.2885,2.2897,2.3002,2.2958,2.2972,2.3015,2.3041,2.3048,2.3066,2.311,2.3117,2.3086,2.3152,2.3162,2.3201,2.3211,2.3201,2.3205,2.3302,2.3303,2.3304,2.3287,0,0,0,0,0,0,2.2881,2.2896,2.2908,2.2958,2.2974,2.3034,2.3041,2.305,2.3073,2.3075,2.3121,2.3128,2.3153,2.3195,2.3204,2.3216,2.3207,2.3302,2.3303,2.3304,2.3287,2.3287,2.3288,0,0,0,0,0,2.2876,2.2898,2.2908,2.292,2.299,2.3035,2.3044,2.3073,2.3073,2.3086,2.3114,2.3127,2.3208,2.3199,2.3209,2.3222,2.3301,2.3302,2.3304,2.3287,2.3287,2.3288,0,0,0,0,0,0,2.2846,2.2905,2.2917,2.2957,2.2991,2.304,2.3057,2.3072,2.3105,2.3106,2.3139,2.3149,2.3185,2.3207,2.3196,2.3255,2.3256,2.3259,2.3239,2.324,2.324,2.3234,2.321,0,0,0,0,0,2.2845,2.2877,2.2926,2.2956,2.2973,2.3012,2.3032,2.3052,2.3088,2.3102,2.3133,2.3167,2.32,2.3221,2.3254,2.3291,2.3302,2.3305,2.3305,2.3305,2.3308,2.333,2.3332,2.3309,2.3309,2.3309,0,0,2.2841,2.2878,2.2895,2.2952,2.298,2.3013,2.3024,2.3057,2.3081,2.3107,2.3146,2.317,2.321,2.3248,2.3266,2.3267,2.3317,2.3307,2.3306,2.3309,2.3332,2.3334,2.3336,2.331,2.3309,2.3309,0,0,2.2852,2.2882,2.2911,2.2941,2.2985,2.3011,2.3018,2.3066,2.3084,2.3124,2.3145,2.3173,2.3229,2.3258,2.3279,2.3302,2.3316,2.3312,2.3313,2.3335,2.3337,2.3339,2.3348,2.3351,2.3314,2.3314,2.3314,0,2.2841,2.2892,2.2924,2.2957,2.2981,2.3009,2.3038,2.3065,2.3116,2.3132,2.3134,2.3207,2.3235,2.3281,2.3287,2.3303,2.3312,2.3307,2.3334,2.3336,2.3338,2.3348,2.3351,2.3314,2.3314,2.3314,2.3314,0,2.2877,2.2912,2.293,2.2982,2.3008,2.3039,2.3076,2.3099,2.3117,2.3142,2.3184,2.3219,2.3261,2.3273,2.3289,2.3322,2.3321,2.3328,2.3329,2.334,2.3349,2.3352,2.3313,2.3313,2.3313,2.3313,0,0,2.2869,2.2941,2.2947,2.2972,2.3024,2.3051,2.3084,2.3126,2.3145,2.3181,2.3209,2.3257,2.3265,2.3289,2.3309,2.3328,2.3346,2.3333,2.3334,2.3334,2.3384,2.3379,2.3383,2.3355,2.3356,2.3357,2.3381,0,2.2887,2.2948,2.2979,2.3026,2.3059,2.3087,2.3115,2.315,2.3175,2.3206,2.3234,2.3268,2.3275,2.329,2.331,2.3339,2.3356,2.3338,2.3381,2.3382,2.3371,2.3387,2.3382,2.3403,2.3385,2.3386,2.3386,0,2.2915,2.2953,2.3004,2.3054,2.3069,2.3094,2.3137,2.3166,2.3206,2.3224,2.3252,2.3273,2.3308,2.3307,2.3356,2.3343,2.3363,2.338,2.3382,2.3387,2.3385,2.3393,2.3411,2.3414,2.3392,2.3391,2.3391,0,2.2906,2.2969,2.3008,2.3028,2.3087,2.3105,2.313,2.317,2.3194,2.3231,2.3247,2.3287,2.3308,2.3338,2.3369,2.3365,2.3415,2.3417,2.343,2.343,2.3439,2.3438,2.3461,2.3452,2.3451,2.3451,2.3451,0,2.2922,2.2952,2.3005,2.3029,2.3064,2.31,2.3133,2.316,2.3196,2.3226,2.3251,2.3278,2.3317,2.3349,2.3373,2.3411,2.342,2.3434,2.3441,2.3432,2.3431,2.3445,2.3445,2.3452,2.3452,2.3452,2.3452,0,2.2917,2.2953,2.2998,2.3052,2.3066,2.3089,2.3135,2.3159,2.3187,2.3224,2.3235,2.3277,2.3316,2.335,2.3401,2.3417,2.3456,2.3463,2.3443,2.3447,2.3459,2.3457,2.3491,2.3498,2.3484,2.3484,2.3484,0,2.2925,2.2949,2.3006,2.3029,2.3054,2.309,2.3115,2.3152,2.3177,2.3226,2.3244,2.3286,2.3321,2.3382,2.3417,2.3456,2.3465,2.3474,2.3471,2.3462,2.3466,2.3464,2.3467,2.3474,2.3474,2.3474,2.3474,0,2.2935,2.2953,2.299,2.3033,2.3064,2.3099,2.3135,2.3152,2.3195,2.3222,2.3264,2.3291,2.3345,2.3386,2.3429,2.3454,2.3471,2.3475,2.3481,2.3472,2.346,2.3468,2.3444,2.3474,2.3474,2.3474,2.3474,2.3474,2.2938,2.2961,2.3006,2.3046,2.3078,2.3112,2.3138,2.317,2.3205,2.3253,2.3272,2.3314,2.3355,2.3416,2.3442,2.3475,2.3478,2.3485,2.3487,2.3488,2.3488,2.3455,2.3483,2.3483,2.3483,2.3483,2.3483,0,2.295,2.2981,2.3018,2.3069,2.3101,2.3116,2.3158,2.3183,2.3221,2.3258,2.3293,2.3341,2.3381,2.3421,2.3463,2.3482,2.3491,2.3492,2.3491,2.3497,2.3482,2.3474,2.3484,2.3484,2.3484,2.3484,2.3484,2.3484,2.296,2.3002,2.3025,2.3083,2.3113,2.3156,2.3178,2.321,2.324,2.3293,2.3328,2.3354,2.3392,2.3438,2.3476,2.3486,2.3501,2.35,2.3512,2.3498,2.3497,2.3497,2.3489,2.3503,2.3503,2.3524,2.3524,2.3524]}]]